Regional Weather Roundup
Issued by NWS Binghamton, NY

Home | Current Version | Previous Version | Text Only | Print | Product List | Glossary On
Versions: 1 2 3 4 5 6 7 8 9 10 11 12 13 14 15 16 17 18 19 20 21 22 23 24 25 26 27 28
000
ASUS41 KBGM 181710
RWRBGM

REGIONAL WEATHER ROUNDUP
NATIONAL WEATHER SERVICE BINGHAMTON NY
100 PM EDT FRI AUG 18 2017

Note: "fair" indicates few or no clouds below 12,000 feet with no
significant weather and/or obstructions to visibility.

* = Station(s) that does not report precipitation, such as rain,
snow, etc, also no thunder or fog.

NYZ009-015>018-022>025-036-037-044>046-055>057-062-181800
...Central New York...

CITY           SKY/WX    TMP DP  RH WIND       PRES   REMARKS
Binghamton     LGT RAIN  72  71  97 SW6       29.85F FOG
Cortland       CLOUDY    77  70  78 SW8       29.81F
Dansville      MOSUNNY   86  65  49 VRB6      29.76F HX  88
Elmira         PTSUNNY   81  71  71 SW7       29.79F HX  85
Seneca Falls   MOSUNNY   82  70  65 S8        29.76F HX  86
Ithaca         CLOUDY    78  72  81 S9        29.81F
Hamilton       PTSUNNY   77  68  73 CALM      29.82S
Hornell        MOSUNNY   82  63  51 W7        29.82F
Monticello     CLOUDY    73  71  93 S9        29.89F FOG
Oneonta        SUNNY     73 N/A N/A SW3       29.86F
Penn Yan       CLOUDY    83  68  60 VRB3      29.78F HX  86
Rome           CLOUDY    81  74  79 VRB3      29.77F HX  86
Sidney         DRIZZLE   75  75 100 W3        29.83S
Syracuse       PTSUNNY   83  68  60 SW12      29.75F HX  86
$$

PAZ038>040-043-044-047-048-072-181800
...Northeast Pennsylvania...

CITY           SKY/WX    TMP DP  RH WIND       PRES   REMARKS
Hazleton       LGT RAIN  79  73  83 S6        29.92S
Scranton       LGT RAIN  80  73  79 S7        29.84S
$$
&&
KEY
WCI = Wind Chill Index
VSB = Visibility
HX  = Heat Index
$$




USA.gov is the U.S. government's official web portal to all federal, state and local government web resources and services.